Wind_Speed
36 35 35 35 35 35 36 38 40 38 38 35 36 36 36 36 36 36 36 37 38 40 40 40 40 41 42 43 44 45 46 46 47 48 49 50 51 53 54 55 55 56 56 56
37 36 36 37 36 36 37 38 38 38 37 36 36 36 36 36 37 37 38 38 39 39 39 39 40 40 41 42 44 45 45 46 46 47 48 49 50 52 54 54 54 55 56 56
38 36 37 37 35 36 36 36 37 37 36 35 35 35 36 36 37 38 39 39 39 38 39 39 39 40 40 41 42 43 44 45 46 46 46 46 48 50 52 53 54 54 55 56
38 38 38 38 36 35 35 35 35 36 35 35 35 35 35 36 37 37 37 37 37 37 37 38 38 39 40 40 41 43 44 44 45 45 46 46 46 47 49 51 52 53 54 55
39 39 39 36 35 34 34 34 34 35 35 35 35 35 34 35 35 35 35 36 36 36 36 37 38 39 39 39 40 41 42 43 44 45 46 47 47 47 48 49 50 51 52 53
37 38 38 36 34 34 35 34 33 33 33 34 34 34 34 34 34 34 34 34 35 35 35 36 37 38 38 39 40 40 41 43 44 45 46 46 47 47 47 48 48 48 48 50
37 38 38 36 35 35 35 35 33 33 33 33 34 34 34 33 34 34 34 33 33 33 34 34 35 36 37 38 39 39 40 42 43 45 45 46 46 47 47 47 47 47 47 47
37 38 38 36 36 35 35 34 34 34 34 34 34 35 35 34 34 34 33 33 33 33 32 32 33 33 34 35 36 38 39 40 41 42 43 44 45 46 46 47 47 48 47 46
37 37 37 36 36 35 35 35 35 35 35 35 35 35 35 34 34 33 32 32 32 32 32 32 33 33 34 34 35 35 37 38 39 39 40 41 42 43 44 45 46 47 47 47
36 36 36 36 36 35 35 35 35 35 34 34 34 34 34 33 33 32 31 31 32 32 32 32 33 34 34 34 35 35 35 36 37 37 38 40 41 42 43 43 44 45 47 47
35 35 34 34 34 34 34 34 34 34 34 34 34 34 34 33 33 32 32 32 32 32 32 32 33 34 34 34 35 35 35 35 36 37 37 38 38 39 40 41 42 43 45 45
35 34 34 34 34 34 34 34 34 34 34 33 33 32 31 30 30 30 30 30 30 30 31 31 31 31 31 32 33 34 34 35 35 36 37 37 37 38 38 39 40 41 42 43
34 33 34 34 34 34 35 35 35 34 34 33 32 32 31 31 30 29 29 30 30 30 30 29 29 29 30 30 31 32 33 33 34 34 35 36 36 36 37 38 39 40 41 42
33 33 33 34 34 35 35 35 35 34 34 33 33 32 32 31 31 30 30 29 29 29 29 29 29 29 29 30 30 31 31 32 32 32 32 33 33 34 35 35 36 37 38 39
32 32 33 34 34 35 35 35 34 34 34 33 32 32 32 31 31 30 30 29 28 28 27 28 28 29 30 30 30 29 30 30 30 30 31 31 32 32 33 33 34 35 36 37
32 33 33 33 34 34 34 34 34 33 32 32 32 32 32 31 30 29 29 28 28 27 27 27 28 28 28 28 28 28 28 29 29 29 30 30 30 31 32 32 33 33 33 35
31 32 33 33 33 33 33 32 32 31 31 30 31 31 30 29 29 28 28 28 27 27 27 27 27 27 27 27 27 28 28 28 28 29 29 29 29 30 30 31 31 32 32 33
32 32 32 33 32 31 30 30 30 29 29 29 30 30 29 29 28 28 28 28 28 28 27 27 27 26 26 27 27 27 28 28 28 28 28 29 29 29 30 30 31 31 31 32
31 31 31 30 30 29 28 28 29 29 29 29 29 29 29 29 28 28 28 28 27 27 28 28 27 27 27 27 27 27 27 27 27 27 27 28 28 29 30 31 31 31 31 32
31 30 30 30 29 29 28 28 28 28 28 28 28 28 27 27 27 27 27 27 27 27 28 28 28 28 28 28 28 28 28 27 27 28 28 28 28 29 29 30 30 31 31 31
29 29 29 28 28 27 27 27 27 27 27 27 26 26 25 25 26 26 26 26 26 27 27 27 28 28 28 28 28 28 28 28 27 27 27 28 28 29 29 29 30 30 30 30
28 28 27 27 27 26 26 26 26 26 26 25 25 25 24 25 25 25 25 26 26 26 27 27 28 28 28 28 28 28 28 28 28 28 28 28 28 28 29 29 30 30 30 30
27 27 27 26 26 26 26 26 26 26 25 25 24 24 24 24 24 25 25 25 26 26 26 27 27 27 27 27 27 27 27 27 28 28 28 28 28 28 29 29 30 30 30 30
27 26 26 26 26 26 26 26 26 26 25 25 24 24 24 25 25 25 25 25 25 25 25 25 26 26 27 27 27 27 27 27 28 28 28 28 28 28 28 29 30 30 30 30
26 26 26 26 25 25 26 26 26 25 25 25 24 24 24 24 24 24 25 24 24 23 24 24 25 25 25 26 26 26 27 27 27 27 27 27 27 28 28 28 29 29 29 30
26 26 26 25 25 25 25 25 24 24 24 24 24 24 23 24 24 24 24 24 23 23 24 24 24 24 24 25 25 26 26 27 27 27 27 26 26 26 26 27 27 28 28 28
25 25 24 24 24 24 24 23 23 23 23 23 23 23 23 23 24 24 24 24 24 24 24 24 25 25 25 26 26 26 26 26 26 25 25 24 25 25 25 26 26 26 27 27
Wind_Direction
295 294 294 293 293 292 291 291 290 291 289 289 286 284 284 283 282 280 278 276 274 271 270 268 267 265 262 259 258 258 258 257 256 256 257 256 254 253 251 251 252 252 252 252
294 292 291 291 293 294 293 293 292 291 290 290 287 285 284 283 282 280 279 278 276 273 270 268 267 266 264 261 259 258 258 258 258 258 258 257 256 253 251 251 252 253 253 252
293 292 291 292 296 296 295 294 293 292 293 291 289 286 284 283 283 282 280 279 277 275 271 268 265 264 264 263 261 260 260 260 259 259 259 258 257 255 253 252 252 253 253 253
292 292 290 295 295 296 295 294 293 292 292 292 291 288 286 285 284 283 281 280 279 277 273 270 266 265 264 263 262 261 261 261 261 260 260 259 257 255 254 253 253 254 254 253
292 291 291 293 296 296 295 294 294 293 292 292 291 289 288 287 285 284 282 281 279 278 275 272 269 267 265 264 264 263 262 261 261 261 261 260 259 257 256 255 255 255 255 253
290 290 291 295 296 296 296 295 295 294 293 293 293 291 289 289 287 284 283 282 281 279 277 274 271 269 267 267 266 265 263 262 262 262 262 261 260 259 258 256 255 254 254 253
288 289 291 294 294 294 294 296 294 293 293 292 292 291 290 289 288 286 284 283 281 280 278 275 273 271 269 269 268 267 266 265 264 263 262 261 261 260 259 257 255 253 253 252
288 289 292 293 293 292 293 294 294 294 293 292 290 290 290 289 288 287 285 283 282 280 278 275 274 274 273 271 270 268 267 266 265 264 262 261 261 261 259 258 256 253 252 251
288 289 291 291 291 292 292 293 293 294 293 292 291 291 290 289 287 286 285 283 282 280 278 277 276 275 274 273 271 270 268 267 266 265 263 262 262 261 259 258 257 254 252 251
288 289 290 290 290 291 291 291 292 293 292 292 291 291 291 290 289 287 285 284 283 282 280 279 278 277 275 274 273 272 271 269 268 266 265 265 265 263 260 258 257 256 253 251
289 291 291 291 290 289 289 290 290 291 291 292 292 292 292 290 288 287 286 285 284 283 281 280 279 278 276 274 273 272 271 271 269 268 268 267 266 264 261 258 257 257 254 251
289 290 290 291 290 289 289 289 289 289 291 292 293 293 293 292 290 288 287 285 284 283 282 281 280 279 277 275 275 274 273 272 271 269 268 267 266 263 261 260 259 258 255 251
289 290 290 291 291 291 289 288 288 288 290 291 292 292 292 291 290 288 287 286 285 284 282 281 280 280 280 279 278 277 275 274 273 271 269 268 265 262 261 260 260 259 257 254
290 290 291 291 291 291 290 289 287 288 289 290 290 291 290 289 289 288 287 286 286 284 283 282 281 281 281 282 280 279 277 276 274 272 271 269 266 264 262 260 259 259 258 255
291 291 292 292 291 291 290 289 288 287 288 289 290 290 289 288 288 287 287 286 285 285 284 284 283 283 283 283 282 280 278 277 275 273 272 270 267 265 264 262 261 259 258 256
292 293 294 293 292 292 291 289 288 288 288 289 290 290 289 288 288 287 286 285 285 284 284 284 284 284 284 283 282 281 279 278 276 274 273 270 268 266 264 263 262 261 259 257
293 293 293 294 294 293 292 291 289 289 288 289 290 290 289 288 288 287 286 285 284 284 284 284 284 285 284 284 283 282 281 280 278 275 273 271 268 266 264 263 262 261 260 258
294 294 295 295 295 295 294 293 292 291 290 290 290 290 290 289 288 287 286 284 284 283 283 283 284 285 285 285 284 283 282 281 279 278 276 274 270 267 265 264 263 262 261 259
294 295 296 295 295 294 294 294 293 292 292 292 291 291 289 288 288 287 286 285 283 282 281 282 283 284 285 286 285 284 283 281 280 278 276 274 271 268 266 265 264 263 262 261
295 295 295 295 295 295 294 294 295 294 293 293 293 291 290 289 288 288 287 285 284 283 282 282 283 284 285 286 286 285 284 283 281 279 277 275 272 269 267 265 264 264 263 261
296 297 297 296 296 296 295 296 296 296 295 294 294 293 291 291 291 290 289 287 285 285 284 284 285 285 286 286 285 284 284 283 283 281 278 275 272 270 267 265 264 263 262 261
296 297 297 297 296 296 296 297 298 298 297 297 296 295 293 293 292 292 291 289 288 287 286 286 286 286 286 286 285 284 283 283 283 281 279 276 274 271 269 266 265 264 263 262
296 298 298 297 295 295 296 297 298 298 297 297 297 295 294 294 294 294 293 293 291 289 288 288 287 287 287 288 287 285 284 284 283 282 280 278 275 273 270 268 266 264 263 262
297 298 298 297 295 295 296 297 297 297 297 297 296 295 295 294 294 295 295 295 294 292 291 290 290 289 288 288 287 286 285 285 284 283 280 277 275 274 272 269 267 266 264 263
297 297 299 298 297 297 298 298 297 297 297 297 296 296 295 295 295 296 297 297 295 294 293 294 294 294 293 291 289 288 287 286 286 284 282 279 277 275 273 271 269 267 264 262
298 299 299 298 299 300 300 299 298 297 297 297 296 297 297 297 297 297 298 297 295 295 294 295 296 295 295 294 292 291 289 288 287 285 283 280 278 275 274 273 271 268 265 263
299 299 298 298 299 300 300 300 300 299 299 299 298 298 298 298 298 298 298 297 295 295 295 295 295 295 294 294 293 293 292 291 289 287 285 282 279 277 276 274 273 270 268 265
Height
5567 5564 5561 5557 5554 5551 5547 5544 5540 5538 5535 5535 5531 5528 5525 5522 5520 5518 5516 5515 5514 5514 5513 5513 5513 5514 5514 5515 5516 5517 5518 5519 5520 5522 5523 5525 5527 5529 5531 5533 5536 5539 5542 5545
5557 5554 5550 5547 5545 5542 5538 5534 5530 5527 5525 5524 5520 5517 5514 5512 5509 5507 5506 5504 5503 5502 5501 5501 5501 5501 5501 5502 5502 5503 5504 5505 5507 5508 5509 5510 5512 5514 5516 5519 5521 5524 5526 5529
5546 5544 5540 5537 5537 5533 5528 5525 5521 5517 5516 5512 5509 5506 5504 5501 5499 5496 5495 5493 5491 5490 5489 5489 5488 5488 5489 5489 5489 5490 5491 5492 5493 5494 5495 5496 5497 5499 5501 5504 5506 5508 5510 5513
5535 5533 5528 5531 5527 5523 5518 5515 5511 5507 5504 5501 5498 5495 5493 5490 5488 5485 5483 5481 5480 5478 5477 5476 5476 5476 5476 5476 5477 5477 5478 5479 5479 5480 5481 5482 5483 5485 5487 5488 5491 5493 5495 5497
5525 5520 5518 5519 5516 5511 5507 5505 5502 5497 5494 5491 5488 5485 5483 5480 5477 5474 5472 5470 5468 5467 5465 5464 5464 5463 5463 5463 5463 5464 5465 5465 5466 5466 5467 5468 5470 5471 5472 5474 5476 5478 5480 5482
5514 5510 5507 5510 5506 5501 5498 5495 5493 5488 5484 5481 5477 5475 5474 5470 5467 5464 5462 5459 5457 5455 5454 5453 5452 5452 5451 5451 5451 5451 5451 5452 5453 5453 5454 5454 5456 5457 5458 5460 5461 5463 5465 5468
5504 5499 5497 5498 5495 5491 5488 5486 5482 5478 5474 5471 5468 5465 5463 5460 5457 5454 5452 5449 5447 5445 5443 5442 5441 5440 5440 5439 5439 5439 5439 5439 5439 5440 5440 5441 5442 5443 5444 5446 5448 5450 5452 5455
5494 5490 5490 5486 5483 5481 5478 5474 5471 5467 5464 5461 5458 5455 5452 5449 5446 5444 5441 5439 5437 5435 5433 5432 5430 5429 5429 5428 5427 5426 5426 5426 5427 5427 5427 5427 5428 5428 5429 5431 5433 5436 5438 5441
5484 5483 5479 5475 5472 5469 5467 5464 5460 5457 5454 5451 5448 5445 5442 5439 5436 5433 5431 5429 5427 5425 5423 5422 5420 5419 5418 5417 5416 5415 5414 5414 5414 5414 5414 5414 5414 5415 5416 5417 5420 5422 5425 5428
5473 5471 5468 5464 5461 5459 5456 5453 5450 5447 5444 5440 5437 5434 5431 5428 5426 5423 5421 5419 5417 5415 5413 5411 5410 5408 5407 5406 5405 5404 5403 5402 5402 5402 5401 5401 5401 5402 5402 5404 5406 5408 5411 5414
5462 5460 5457 5454 5451 5448 5445 5442 5439 5437 5434 5430 5427 5424 5421 5418 5415 5413 5411 5409 5407 5405 5403 5401 5399 5398 5396 5395 5394 5393 5392 5391 5390 5390 5389 5389 5389 5389 5390 5391 5393 5395 5398 5400
5452 5450 5447 5444 5441 5438 5435 5432 5429 5426 5423 5420 5417 5414 5411 5408 5405 5403 5401 5399 5396 5394 5393 5391 5389 5387 5386 5384 5383 5382 5380 5379 5378 5378 5377 5377 5377 5377 5377 5379 5380 5382 5384 5386
5442 5439 5436 5433 5430 5427 5424 5422 5419 5416 5413 5411 5408 5404 5402 5399 5396 5393 5391 5389 5387 5385 5383 5381 5379 5378 5376 5374 5373 5371 5370 5368 5367 5366 5366 5365 5365 5366 5366 5367 5368 5369 5371 5373
5431 5428 5426 5423 5420 5417 5414 5411 5408 5406 5403 5400 5397 5395 5392 5389 5386 5384 5381 5379 5377 5375 5373 5371 5369 5368 5366 5364 5362 5361 5359 5358 5356 5356 5355 5354 5354 5354 5355 5356 5357 5357 5359 5360
5421 5418 5415 5412 5409 5406 5403 5400 5397 5395 5392 5390 5387 5384 5381 5379 5376 5374 5371 5369 5367 5365 5363 5361 5359 5358 5356 5354 5352 5351 5349 5348 5346 5345 5345 5344 5344 5344 5344 5345 5346 5347 5347 5349
5410 5407 5404 5401 5398 5395 5392 5389 5386 5384 5381 5379 5376 5374 5371 5368 5366 5364 5361 5359 5357 5356 5354 5352 5350 5348 5346 5344 5343 5341 5340 5338 5337 5336 5335 5334 5334 5334 5334 5334 5335 5336 5337 5338
5400 5397 5394 5391 5388 5384 5381 5378 5375 5373 5371 5368 5366 5363 5361 5359 5356 5354 5352 5350 5348 5346 5344 5342 5340 5338 5337 5335 5333 5331 5330 5328 5327 5326 5325 5324 5324 5324 5324 5324 5325 5325 5326 5327
5390 5387 5384 5381 5377 5374 5371 5368 5366 5363 5361 5358 5356 5354 5351 5349 5347 5344 5342 5340 5339 5337 5335 5333 5331 5329 5327 5325 5324 5322 5320 5319 5317 5316 5315 5314 5314 5314 5314 5314 5314 5315 5315 5316
5380 5378 5375 5371 5368 5365 5362 5359 5357 5354 5351 5349 5346 5344 5341 5339 5337 5335 5333 5331 5329 5327 5325 5323 5322 5320 5318 5316 5314 5312 5310 5309 5308 5306 5305 5304 5304 5303 5303 5304 5304 5304 5305 5305
5371 5368 5365 5362 5359 5356 5353 5351 5348 5345 5342 5339 5337 5334 5332 5329 5327 5325 5323 5321 5319 5318 5316 5314 5312 5310 5308 5306 5304 5302 5301 5299 5298 5297 5296 5295 5294 5293 5293 5293 5293 5294 5294 5295
5362 5359 5356 5353 5350 5347 5345 5342 5339 5336 5333 5330 5328 5325 5323 5321 5318 5316 5314 5312 5310 5308 5306 5305 5303 5301 5299 5297 5295 5293 5291 5290 5288 5287 5286 5285 5284 5283 5283 5283 5283 5283 5284 5284
5354 5351 5348 5345 5342 5339 5336 5334 5331 5328 5325 5322 5319 5317 5314 5312 5310 5308 5305 5303 5301 5299 5297 5295 5293 5291 5289 5287 5285 5283 5281 5280 5278 5277 5275 5275 5274 5273 5273 5273 5273 5273 5273 5274
5345 5342 5339 5336 5334 5331 5328 5325 5322 5320 5317 5314 5311 5309 5307 5304 5302 5300 5297 5295 5292 5290 5288 5286 5284 5282 5280 5278 5275 5273 5272 5270 5268 5266 5265 5264 5263 5263 5262 5262 5262 5263 5263 5263
5336 5334 5331 5328 5325 5323 5320 5317 5314 5311 5309 5306 5304 5301 5299 5297 5294 5292 5289 5286 5284 5281 5279 5277 5275 5272 5270 5268 5266 5264 5262 5260 5258 5256 5254 5253 5253 5252 5252 5252 5252 5252 5252 5253
5328 5325 5322 5320 5317 5314 5311 5309 5306 5303 5301 5298 5296 5293 5291 5288 5286 5283 5281 5278 5276 5273 5271 5269 5266 5264 5261 5259 5257 5254 5252 5250 5248 5246 5244 5243 5242 5242 5241 5241 5241 5241 5242 5242
5320 5317 5314 5312 5309 5306 5304 5301 5298 5296 5293 5291 5288 5286 5283 5281 5278 5275 5273 5270 5268 5265 5263 5261 5258 5256 5253 5250 5248 5245 5243 5240 5238 5236 5234 5233 5232 5231 5231 5231 5231 5231 5231 5232
5312 5309 5307 5304 5302 5299 5296 5294 5291 5289 5286 5284 5281 5278 5276 5273 5271 5268 5265 5263 5260 5258 5255 5253 5250 5247 5245 5242 5239 5237 5234 5231 5229 5227 5225 5224 5223 5222 5222 5221 5221 5221 5221 5221